DW2047 Weather Reports


Display with metric or nautical units.
time (UTC)temp
F
wind
direction
speed
MPH
gust
MPH
rain 1hr
in
rain 24hr
in
rain mn
in
humidity
%
barometer
mb
20260903013558 89 146 0.0 0.0 0.00 0.00 0.00 56 1010.6
20260903013007 90 146 0.0 0.0 0.00 0.00 0.00 55 1010.6
20260903012547 90 146 0.0 1.0 0.00 0.00 0.00 55 1010.6
20260903012025 91 146 0.0 1.0 0.00 0.00 0.00 54 1010.6
20260903011536 91 146 0.0 1.0 0.00 0.00 0.00 54 1010.6
20260903011012 92 146 0.0 3.0 0.00 0.00 0.00 51 1010.7
20260903010553 92 146 1.0 3.0 0.00 0.00 0.00 50 1010.7
20260903010105 93 146 0.0 0.0 0.00 0.00 0.00 50 1010.5
20260903005544 93 146 0.0 0.0 0.00 0.00 0.00 48 1010.5
20260903005018 94 146 0.0 0.0 0.00 0.00 0.00 48 1010.5
20260903004536 94 146 0.0 0.0 0.00 0.00 0.00 47 1010.6
20260903004008 94 146 0.0 1.0 0.00 0.00 0.00 48 1010.6
20260903003547 94 146 0.0 1.0 0.00 0.00 0.00 47 1010.6
20260903003058 95 146 0.0 1.0 0.00 0.00 0.00 48 1010.6
20260903002535 95 146 0.0 1.0 0.00 0.00 0.00 47 1010.6
20260903002014 95 146 0.0 2.0 0.00 0.00 0.00 46 1010.5
20260903001521 95 146 0.0 3.0 0.00 0.00 0.00 46 1010.5
20260903001103 95 146 1.0 3.0 0.00 0.00 0.00 45 1010.5
20260903000540 95 146 1.0 3.0 0.00 0.00 0.00 44 1010.5
20260903000051 96 146 1.0 3.0 0.00 0.00 0.00 44 1010.5
20260902235527 96 146 0.0 3.0 0.00 0.00 0.00 45 1010.5
20260902235004 96 146 1.0 4.0 0.00 0.00 0.00 44 1010.5
20260902234516 96 146 2.0 4.0 0.00 0.00 0.00 43 1010.5
20260902234056 96 146 1.0 4.0 0.00 0.00 0.00 43 1010.5
20260902233533 97 146 1.0 5.0 0.00 0.00 0.00 43 1010.5
20260902233045 97 147 0.0 5.0 0.00 0.00 0.00 42 1010.6
20260902232524 97 210 1.0 5.0 0.00 0.00 0.00 42 1010.6
20260902232103 97 199 0.0 5.0 0.00 0.00 0.00 43 1010.6
20260902231515 97 138 1.0 5.0 0.00 0.00 0.00 43 1010.6
20260902231054 98 174 1.0 7.0 0.00 0.00 0.00 43 1010.6
20260902230526 99 140 2.0 10.0 0.00 0.00 0.00 41 1010.6
20260902230039 101 138 2.0 7.0 0.00 0.00 0.00 39 1010.6
20260902225517 101 280 1.0 5.0 0.00 0.00 0.00 37 1010.3
20260902225101 101 245 1.0 3.0 0.00 0.00 0.00 37 1010.2
20260902224504 101 258 1.0 4.0 0.00 0.00 0.00 37 1010.2
20260902224045 101 257 1.0 4.0 0.00 0.00 0.00 38 1010.1
20260902223522 101 329 1.0 5.0 0.00 0.00 0.00 37 1010.2
20260902223034 101 333 0.0 3.0 0.00 0.00 0.00 37 1010.2
20260902222511 100 333 0.0 5.0 0.00 0.00 0.00 40 1010.3
20260902222051 100 333 2.0 5.0 0.00 0.00 0.00 40 1010.3
20260902221602 99 340 1.0 5.0 0.00 0.00 0.00 40 1010.4
20260902221039 99 339 1.0 5.0 0.00 0.00 0.00 40 1010.4
20260902220519 99 321 2.0 5.0 0.00 0.00 0.00 39 1010.5
20260902220027 98 333 2.0 5.0 0.00 0.00 0.00 43 1010.5
20260902215506 98 68 1.0 5.0 0.00 0.00 0.00 43 1010.7
20260902215044 97 292 1.0 4.0 0.00 0.00 0.00 42 1010.7
20260902214556 97 269 2.0 3.0 0.00 0.00 0.00 42 1010.7
20260902214032 97 268 1.0 3.0 0.00 0.00 0.00 43 1010.7
20260902213508 98 268 1.0 4.0 0.00 0.00 0.00 43 1010.7
20260902213023 98 268 1.0 5.0 0.00 0.00 0.00 41 1010.7
20260902212602 100 331 2.0 5.0 0.00 0.00 0.00 40 1010.8
20260902212037 101 244 2.0 4.0 0.00 0.00 0.00 36 1010.7
20260902211556 101 242 0.0 5.0 0.00 0.00 0.00 36 1010.7
20260902211028 101 334 1.0 7.0 0.00 0.00 0.00 36 1010.7
20260902210501 101 265 3.0 7.0 0.00 0.00 0.00 36 1010.9
20260902210012 101 254 2.0 7.0 0.00 0.00 0.00 35 1010.9
20260902205554 100 259 3.0 7.0 0.00 0.00 0.00 36 1010.9
20260902205030 100 253 3.0 7.0 0.00 0.00 0.00 38 1010.9
20260902204543 100 210 2.0 6.0 0.00 0.00 0.00 38 1011.0
20260902204021 100 144 1.0 6.0 0.00 0.00 0.00 40 1011.1
20260902203559 99 238 2.0 6.0 0.00 0.00 0.00 41 1011.2
20260902203004 99 140 2.0 5.0 0.00 0.00 0.00 40 1011.3
20260902202546 99 250 0.0 4.0 0.00 0.00 0.00 40 1011.3
20260902202023 99 189 1.0 4.0 0.00 0.00 0.00 41 1011.4
20260902201537 99 238 2.0 5.0 0.00 0.00 0.00 43 1011.5
20260902201010 98 136 1.0 5.0 0.00 0.00 0.00 45 1011.5
20260902200551 98 263 1.0 4.0 0.00 0.00 0.00 41 1011.6
20260902195543 97 263 0.0 4.0 0.00 0.00 0.00 46 1011.9
20260902195015 96 262 1.0 3.0 0.00 0.00 0.00 46 1012.0
20260902194535 95 360 0.0 4.0 0.00 0.00 0.00 48 1012.1
20260902194004 95 360 0.0 4.0 0.00 0.00 0.00 48 1012.1
20260902193544 96 360 0.0 4.0 0.00 0.00 0.00 47 1012.2
20260902193057 96 360 0.0 8.0 0.00 0.00 0.00 47 1012.3
20260902192532 98 302 3.0 8.0 0.00 0.00 0.00 44 1012.3
20260902192009 99 66 1.0 4.0 0.00 0.00 0.00 41 1012.3
20260902191524 99 66 2.0 4.0 0.00 0.00 0.00 42 1012.4
20260902191102 99 66 0.0 5.0 0.00 0.00 0.00 42 1012.5
20260902190538 99 66 0.0 8.0 0.00 0.00 0.00 42 1012.6
20260902190054 99 63 3.0 8.0 0.00 0.00 0.00 44 1012.6
20260902185526 97 345 2.0 7.0 0.00 0.00 0.00 44 1012.7
20260902185001 96 260 1.0 7.0 0.00 0.00 0.00 44 1012.8
20260902184514 96 301 2.0 5.0 0.00 0.00 0.00 44 1012.8
20260902184054 97 297 2.0 5.0 0.00 0.00 0.00 44 1013.0
20260902183531 97 215 1.0 6.0 0.00 0.00 0.00 43 1013.1
20260902183042 98 259 2.0 7.0 0.00 0.00 0.00 42 1013.1
20260902182521 97 261 3.0 7.0 0.00 0.00 0.00 43 1013.2
20260902182101 97 247 1.0 7.0 0.00 0.00 0.00 43 1013.3
20260902181509 97 138 2.0 7.0 0.00 0.00 0.00 43 1013.3
20260902181050 97 139 1.0 7.0 0.00 0.00 0.00 44 1013.5
20260902180529 97 101 1.0 8.0 0.00 0.00 0.00 44 1013.7
20260902180043 97 135 3.0 8.0 0.00 0.00 0.00 44 1013.7
20260902175518 97 267 1.0 7.0 0.00 0.00 0.00 45 1013.8
20260902175103 97 153 1.0 7.0 0.00 0.00 0.00 45 1014.0
20260902174507 96 271 4.0 7.0 0.00 0.00 0.00 44 1014.0
20260902174047 96 208 1.0 7.0 0.00 0.00 0.00 45 1014.1
20260902173525 96 281 3.0 7.0 0.00 0.00 0.00 45 1014.2
20260902173038 95 258 1.0 6.0 0.00 0.00 0.00 45 1014.3
20260902172511 95 258 3.0 8.0 0.00 0.00 0.00 45 1014.3
20260902172053 95 254 3.0 8.0 0.00 0.00 0.00 45 1014.5
20260902171605 95 259 2.0 8.0 0.00 0.00 0.00 47 1014.5
20260902171042 95 246 1.0 7.0 0.00 0.00 0.00 47 1014.5
20260902170516 95 254 2.0 7.0 0.00 0.00 0.00 46 1014.6
20260902170024 94 209 0.0 7.0 0.00 0.00 0.00 47 1014.7
20260902165605 94 273 3.0 7.0 0.00 0.00 0.00 48 1014.7
20260902165041 94 210 2.0 4.0 0.00 0.00 0.00 50 1014.7
20260902164552 93 263 1.0 7.0 0.00 0.00 0.00 49 1014.8
20260902164029 93 244 2.0 7.0 0.00 0.00 0.00 50 1014.8
20260902163505 93 284 2.0 7.0 0.00 0.00 0.00 52 1014.9
20260902163017 92 331 0.0 6.0 0.00 0.00 0.00 53 1015.0
20260902162557 92 313 2.0 5.0 0.00 0.00 0.00 52 1015.0
20260902162035 92 271 2.0 4.0 0.00 0.00 0.00 53 1015.0
20260902161547 92 271 1.0 6.0 0.00 0.00 0.00 53 1015.1
20260902161025 92 271 1.0 6.0 0.00 0.00 0.00 54 1015.1
20260902160503 91 271 1.0 4.0 0.00 0.00 0.00 54 1015.1
20260902160013 91 271 1.0 5.0 0.00 0.00 0.00 55 1015.1
20260902155556 91 257 2.0 8.0 0.00 0.00 0.00 55 1015.2
20260902155033 90 281 2.0 8.0 0.00 0.00 0.00 55 1015.1
20260902154544 90 192 1.0 4.0 0.00 0.00 0.00 57 1015.1
20260902154020 89 276 1.0 4.0 0.00 0.00 0.00 57 1015.1
20260902153600 89 276 1.0 4.0 0.00 0.00 0.00 58 1015.2
20260902153007 89 218 1.0 4.0 0.00 0.00 0.00 60 1015.2
20260902152547 88 218 1.0 4.0 0.00 0.00 0.00 59 1015.2
20260902152025 88 219 0.0 3.0 0.00 0.00 0.00 60 1015.2
20260902151535 88 218 1.0 4.0 0.00 0.00 0.00 60 1015.2
20260902151012 87 218 1.0 4.0 0.00 0.00 0.00 61 1015.3
20260902150553 87 238 1.0 3.0 0.00 0.00 0.00 61 1015.2
20260902150105 87 243 1.0 3.0 0.00 0.00 0.00 62 1015.2
20260902145541 86 242 1.0 3.0 0.00 0.00 0.00 62 1015.2
20260902145018 86 242 1.0 4.0 0.00 0.00 0.00 62 1015.2
20260902144536 86 248 0.0 4.0 0.00 0.00 0.00 62 1015.3
20260902144011 85 248 0.0 2.0 0.00 0.00 0.00 67 1015.3
20260902143550 85 248 0.0 2.0 0.00 0.00 0.00 66 1015.3
20260902143102 84 248 0.0 2.0 0.00 0.00 0.00 67 1015.3
20260902142539 84 248 0.0 4.0 0.00 0.00 0.00 69 1015.3
20260902142016 83 248 1.0 4.0 0.00 0.00 0.00 70 1015.3
20260902141535 82 139 0.0 2.0 0.00 0.00 0.00 72 1015.2
20260902141008 82 139 0.0 4.0 0.00 0.00 0.00 73 1015.2
20260902140549 81 139 1.0 4.0 0.00 0.00 0.00 75 1015.1
20260902140106 80 130 0.0 0.0 0.00 0.00 0.00 76 1015.1
20260902135539 79 130 0.0 0.0 0.00 0.00 0.00 79 1015.1
20260902135017 78 130 0.0 0.0 0.00 0.00 0.00 81 1015.1
20260902134529 78 130 0.0 0.0 0.00 0.00 0.00 82 1015.1
20260902134006 77 130 0.0 0.0 0.00 0.00 0.00 84 1015.1
20260902133547 77 130 0.0 0.0 0.00 0.00 0.00 85 1015.1
20260902133108 76 130 0.0 0.0 0.00 0.00 0.00 85 1015.0
20260902132535 76 130 0.0 0.0 0.00 0.00 0.00 86 1014.9
20260902132011 75 130 0.0 0.0 0.00 0.00 0.00 86 1014.8
20260902131539 75 130 0.0 0.0 0.00 0.00 0.00 86 1014.8
20260902131107 75 130 0.0 0.0 0.00 0.00 0.00 87 1014.8
20260902130541 75 130 0.0 0.0 0.00 0.00 0.00 87 1014.8
20260902130056 74 130 0.0 0.0 0.00 0.00 0.00 87 1014.6
20260902125528 74 130 0.0 0.0 0.00 0.00 0.00 87 1014.6
20260902125004 74 130 0.0 0.0 0.00 0.00 0.00 87 1014.6
20260902124515 74 130 0.0 0.0 0.00 0.00 0.00 87 1014.5
20260902124056 74 130 0.0 0.0 0.00 0.00 0.00 87 1014.5
20260902123533 74 130 0.0 0.0 0.00 0.00 0.00 87 1014.5
20260902123044 74 130 0.0 0.0 0.00 0.00 0.00 87 1014.5
20260902122521 74 130 0.0 0.0 0.00 0.00 0.00 86 1014.5
20260902122103 74 130 0.0 0.0 0.00 0.00 0.00 86 1014.5
20260902121508 74 130 0.0 0.0 0.00 0.00 0.00 86 1014.5
20260902121049 74 130 0.0 0.0 0.00 0.00 0.00 86 1014.5
20260902120526 74 130 0.0 0.0 0.00 0.00 0.00 86 1014.4
20260902120040 75 130 0.0 0.0 0.00 0.00 0.00 85 1014.5
20260902115513 75 130 0.0 0.0 0.00 0.00 0.00 85 1014.5
20260902115054 75 130 0.0 0.0 0.00 0.00 0.00 85 1014.5
20260902114501 75 130 0.0 0.0 0.00 0.00 0.00 85 1014.5
20260902114041 75 130 0.0 0.0 0.00 0.00 0.00 84 1014.4
20260902113515 75 130 0.0 0.0 0.00 0.00 0.00 84 1014.4
20260902113026 75 130 0.0 0.0 0.00 0.00 0.00 84 1014.2
20260902112503 76 130 0.0 0.0 0.00 0.00 0.00 84 1014.1
20260902112044 76 130 0.0 0.0 0.00 0.00 0.00 84 1014.1
20260902111555 76 130 0.0 0.0 0.00 0.00 0.00 84 1014.1
20260902111031 76 130 0.0 0.0 0.00 0.00 0.00 84 1014.0
20260902110508 76 130 0.0 0.0 0.00 0.00 0.00 85 1014.0
20260902110020 75 130 0.0 0.0 0.00 0.00 0.00 85 1014.0
20260902105601 75 130 0.0 0.0 0.00 0.00 0.00 85 1014.0
20260902105037 75 130 0.0 0.0 0.00 0.00 0.00 86 1013.9
20260902104555 75 130 0.0 0.0 0.00 0.00 0.00 86 1014.0
20260902104025 75 130 0.0 2.0 0.00 0.00 0.00 86 1014.0
20260902103501 75 130 0.0 2.0 0.00 0.00 0.00 86 1014.0
20260902103012 75 130 0.0 1.0 0.00 0.00 0.00 86 1014.0
20260902102557 75 130 0.0 0.0 0.00 0.00 0.00 86 1014.0
20260902102030 75 130 0.0 0.0 0.00 0.00 0.00 86 1014.0
20260902101545 75 130 0.0 0.0 0.00 0.00 0.00 86 1014.0
20260902101019 75 130 0.0 0.0 0.00 0.00 0.00 86 1014.0
20260902100559 75 130 0.0 0.0 0.00 0.00 0.00 85 1014.1
20260902100004 75 130 0.0 0.0 0.00 0.00 0.00 85 1014.2
20260902095549 75 130 0.0 0.0 0.00 0.00 0.00 85 1014.2
20260902095022 75 130 0.0 0.0 0.00 0.00 0.00 84 1014.2
20260902094533 76 130 0.0 0.0 0.00 0.00 0.00 84 1014.3
20260902094012 76 130 0.0 0.0 0.00 0.00 0.00 84 1014.2
20260902093551 76 130 0.0 0.0 0.00 0.00 0.00 84 1014.2
20260902093104 76 130 0.0 0.0 0.00 0.00 0.00 84 1014.2
20260902092540 76 130 0.0 0.0 0.00 0.00 0.00 84 1014.3
20260902092015 76 130 0.0 0.0 0.00 0.00 0.00 84 1014.3
20260902091554 76 130 0.0 0.0 0.00 0.00 0.00 83 1014.2
20260902091003 76 130 0.0 0.0 0.00 0.00 0.00 82 1014.3
20260902090544 76 130 0.0 0.0 0.00 0.00 0.00 82 1014.4
20260902085532 77 130 0.0 0.0 0.00 0.00 0.00 81 1014.3
20260902085008 77 130 0.0 0.0 0.00 0.00 0.00 81 1014.3
20260902084519 77 130 0.0 0.0 0.00 0.00 0.00 81 1014.3
20260902084100 77 130 0.0 0.0 0.00 0.00 0.00 80 1014.3
20260902083537 77 130 0.0 0.0 0.00 0.00 0.00 80 1014.3
20260902083048 78 130 0.0 2.0 0.00 0.00 0.00 80 1014.3
20260902082524 78 130 0.0 2.0 0.00 0.00 0.00 80 1014.3
20260902082105 78 130 0.0 2.0 0.00 0.00 0.00 79 1014.4
20260902081515 78 130 0.0 2.0 0.00 0.00 0.00 80 1014.3
20260902081053 78 130 0.0 2.0 0.00 0.00 0.00 79 1014.4
20260902080529 78 130 0.0 3.0 0.00 0.00 0.00 80 1014.5
20260902080055 78 130 1.0 3.0 0.00 0.00 0.00 79 1014.4
20260902075516 78 130 0.0 3.0 0.00 0.00 0.00 79 1014.5
20260902075058 78 130 1.0 3.0 0.00 0.00 0.00 79 1014.5
20260902074504 78 130 1.0 3.0 0.00 0.00 0.00 79 1014.5
20260902074048 78 130 1.0 2.0 0.00 0.00 0.00 79 1014.5
20260902073522 78 130 0.0 1.0 0.00 0.00 0.00 78 1014.5
20260902073034 79 130 0.0 1.0 0.00 0.00 0.00 77 1014.5
20260902072509 79 130 0.0 1.0 0.00 0.00 0.00 77 1014.6
20260902072050 79 130 0.0 1.0 0.00 0.00 0.00 77 1014.5
20260902071628 79 130 0.0 1.0 0.00 0.00 0.00 77 1014.6
20260902071038 79 130 0.0 2.0 0.00 0.00 0.00 76 1014.7
20260902070514 79 130 0.0 2.0 0.00 0.00 0.00 76 1014.7
20260902070025 80 130 0.0 2.0 0.00 0.00 0.00 76 1014.7
20260902065502 80 130 0.0 3.0 0.00 0.00 0.00 75 1014.7
20260902065043 80 130 0.0 3.0 0.00 0.00 0.00 75 1014.7
20260902064556 80 130 0.0 3.0 0.00 0.00 0.00 75 1014.8
20260902064030 80 130 0.0 3.0 0.00 0.00 0.00 75 1014.8
20260902063507 80 130 0.0 1.0 0.00 0.00 0.00 74 1014.9
20260902063025 80 130 0.0 1.0 0.00 0.00 0.00 73 1014.8
20260902062558 80 130 0.0 2.0 0.00 0.00 0.00 73 1014.8
20260902062035 80 130 1.0 2.0 0.00 0.00 0.00 73 1014.8
20260902061603 80 130 0.0 2.0 0.00 0.00 0.00 72 1014.9
20260902061024 80 130 0.0 2.0 0.00 0.00 0.00 72 1014.9
20260902060605 80 130 0.0 2.0 0.00 0.00 0.00 71 1015.0
20260902060020 81 130 0.0 3.0 0.00 0.00 0.00 70 1014.9
20260902055556 81 130 0.0 3.0 0.00 0.00 0.00 69 1014.8
20260902055029 81 130 0.0 1.0 0.00 0.00 0.00 68 1014.8
20260902054545 81 130 0.0 2.0 0.00 0.00 0.00 68 1014.7
20260902054016 81 130 0.0 2.0 0.00 0.00 0.00 68 1014.6
20260902053558 82 130 1.0 2.0 0.00 0.00 0.00 69 1014.6
20260902053005 82 130 0.0 3.0 0.00 0.00 0.00 68 1014.5
20260902052546 82 130 1.0 3.0 0.00 0.00 0.00 67 1014.5
20260902052022 82 130 1.0 4.0 0.00 0.00 0.00 67 1014.5
20260902051533 82 130 2.0 4.0 0.00 0.00 0.00 66 1014.5
20260902051012 83 130 2.0 4.0 0.00 0.00 0.00 66 1014.5
20260902050553 83 130 1.0 4.0 0.00 0.00 0.00 65 1014.4
20260902050112 83 116 1.0 4.0 0.00 0.00 0.00 65 1014.5
20260902045539 83 103 0.0 3.0 0.00 0.00 0.00 65 1014.6
20260902045016 83 105 0.0 3.0 0.00 0.00 0.00 65 1014.6
20260902044530 83 92 0.0 2.0 0.00 0.00 0.00 65 1014.5
20260902044004 83 88 0.0 2.0 0.00 0.00 0.00 66 1014.6
20260902043548 83 88 0.0 3.0 0.00 0.00 0.00 66 1014.6
20260902043057 82 70 1.0 6.0 0.00 0.00 0.00 67 1014.6
20260902042533 82 67 1.0 6.0 0.00 0.00 0.00 68 1014.5
20260902042012 82 123 0.0 0.0 0.00 0.00 0.00 68 1014.5
20260902041531 82 123 0.0 0.0 0.00 0.00 0.00 67 1014.5
20260902041105 83 123 0.0 0.0 0.00 0.00 0.00 67 1014.3
20260902040538 83 123 0.0 0.0 0.00 0.00 0.00 66 1014.3
20260902040050 83 123 0.0 0.0 0.00 0.00 0.00 66 1014.4
20260902035528 83 123 0.0 0.0 0.00 0.00 0.00 65 1014.3
20260902035005 84 123 0.0 0.0 0.00 0.00 0.00 64 1014.3
20260902034518 84 123 0.0 0.0 0.00 0.00 0.00 64 1014.2
20260902034103 84 123 0.0 0.0 0.00 0.00 0.00 63 1014.2
20260902033537 84 123 0.0 0.0 0.00 0.00 0.00 63 1014.1
20260902033047 85 123 0.0 0.0 0.00 0.00 0.00 63 1014.0
20260902032528 85 123 0.0 0.0 0.00 0.00 0.00 62 1014.0
20260902032004 85 123 0.0 0.0 0.00 0.00 0.00 61 1013.9
20260902031516 85 123 0.0 0.0 0.00 0.00 0.00 61 1013.9
20260902031059 85 123 0.0 0.0 0.00 0.00 0.00 60 1013.7
20260902030540 86 123 0.0 0.0 0.00 0.00 0.00 60 1013.7
20260902030049 86 123 0.0 0.0 0.00 0.00 0.00 60 1013.6
20260902025527 86 123 0.0 0.0 0.00 0.00 0.00 59 1013.5
20260902025005 86 123 0.0 0.0 0.00 0.00 0.00 58 1013.3
20260902024514 86 123 0.0 0.0 0.00 0.00 0.00 58 1013.2
20260902024055 87 123 0.0 0.0 0.00 0.00 0.00 57 1013.1
20260902023532 87 123 0.0 0.0 0.00 0.00 0.00 56 1013.0
20260902023043 87 123 0.0 0.0 0.00 0.00 0.00 56 1012.9
20260902022519 88 123 0.0 0.0 0.00 0.00 0.00 55 1012.8
20260902022101 88 123 0.0 0.0 0.00 0.00 0.00 55 1012.9
20260902021506 88 123 0.0 0.0 0.00 0.00 0.00 54 1012.7
20260902021047 88 123 0.0 0.0 0.00 0.00 0.00 54 1012.6
20260902020524 89 123 0.0 0.0 0.00 0.00 0.00 53 1012.5
20260902020035 89 123 0.0 1.0 0.00 0.00 0.00 53 1012.5
20260902015508 89 123 0.0 1.0 0.00 0.00 0.00 52 1012.4
20260902015049 90 123 0.0 1.0 0.00 0.00 0.00 52 1012.4
20260902014601 90 123 0.0 2.0 0.00 0.00 0.00 51 1012.4
20260902014037 90 123 0.0 2.0 0.00 0.00 0.00 50 1012.3